Portada
METAR-TAF:

METAR-TAF

Aeroports :

El Borma, Tunísia

latitud: 31-41N, longitud: 009-10E, altitud: 258 m

Observació

L'informe es va fer fa 1 hora i 28 minuts, a les 16:00 UTC
Vent 10 kt del Nord-Est, variant entre Nord i Est/Sud-Est
Temperatura 34°C
Humitat 19%
Pressió 1007 hPa
Visibilitat 10 km o més
sense núvols per sota de 1500 mi sense presència de cumulonimbus.

METAR: DTTR 201600Z 05010KT 350V110 CAVOK 34/07 Q1007

Hora: 18:28 (17:28 UTC)


TAF: manca

Observacions i pronòstics meteorològics de més de 4000 aeroports (METAR i TAF).

Les estacions disponibles són els punts grocs i vermells al mapa.

Posi el ratolí al punt desitjat per veure el nom de l'estació.

Feu clic per veure les observacions i els pronòstics meteorològics.

Per canviar el mapa: feu clic els botons verds amb una creu de color negre per apropar; al botó verd amb un guió per allunyar la imatge; o en les fletxes verdes per a mapes adjacents.


METAR-TAF: